Flag for Germany Weather past 2 weeks in Göttingen, Lower Saxony, Germany

Now
77 °F

Sunny.


Feels Like: 79 °F
Forecast: 63 / 81 °F
Wind: 13 mph from North

Location: Kassel / Calden

Current Time: Jul 22, 2014 at 3:49:18 PM

Latest Report: Jul 22, 2014 at 3:20 PM


Visibility: 10 mi

Pressure: 30.04 "Hg

Humidity: 65%

Dew point: 64 °F

Location of GöttingenLocation

Historic Weather in Göttingen — Graph

°F

Göttingen temperature yesterday

Maximum temperature yesterday: 72 °F (at 1:50 PM)
Minimum temperature yesterday: 64 °F (at 5:50 AM)
Average temperature yesterday: 69 °F

Past Weeks' High & Low Weather Summary

 TemperatureHumidityPressure
High90 °F (Jul 19, 4:50 PM)100% (Jul 8, 6:20 AM)30.21 "Hg (Jul 8, 6:20 AM)
Low52 °F (Jul 9, 6:50 AM)31% (Jul 19, 1:20 PM)29.65 "Hg (Jul 9, 7:50 AM)
Average69 °F72%29.94 "Hg
* Reported Jul 7 2:20 PM — Jul 22 2:50 PM, Göttingen, Weather by CustomWeather, © 2014

Note: Actual official high and low records may vary slightly from our data, if they occured in-between our weather recording intervals... More about our weather records

Advertising

Göttingen weather history for previous 24 hours

 ConditionsComfort  
Time TempWeatherWind HumidityBarometerVisibility
2:50 PM
Jul 22
77 °FSunny.13 mph61%30.04 "Hg10 mi
2:20 PM77 °FSunny.9 mph61%30.04 "Hg10 mi
1:50 PM77 °FPassing clouds.12 mph65%30.04 "HgN/A
1:20 PM75 °FSunny.13 mph69%30.04 "Hg10 mi
12:50 PM75 °FPassing clouds.10 mph74%30.04 "HgN/A
12:20 PM73 °FPassing clouds.9 mph74%30.04 "HgN/A
11:50 AM72 °FPassing clouds.9 mph78%30.04 "HgN/A
11:20 AM72 °FPassing clouds.7 mph73%30.04 "HgN/A
10:50 AM70 °FSunny.10 mph78%30.04 "Hg10 mi
10:20 AM68 °FSunny.12 mph78%30.04 "Hg10 mi
9:50 AM68 °FPassing clouds.9 mph78%30.04 "HgN/A
9:20 AM66 °FSunny.8 mph83%30.01 "Hg10 mi
8:50 AM66 °FSunny.8 mph83%30.01 "Hg10 mi
8:20 AM64 °FSunny.8 mph88%30.01 "Hg10 mi
7:50 AM64 °FSunny.5 mph88%30.01 "Hg10 mi
7:20 AM63 °FSunny.3 mph94%30.01 "Hg10 mi
6:50 AM63 °FSunny.2 mph88%30.01 "Hg10 mi
6:20 AM63 °FClear.2 mph94%29.98 "Hg10 mi
5:50 AM63 °FPassing clouds.5 mph88%29.98 "HgN/A
9:50 PM
Jul 21
70 °FBroken clouds.7 mph88%29.92 "Hg4 mi
9:20 PM70 °FBroken clouds.9 mph88%29.92 "Hg4 mi
8:50 PM70 °FBroken clouds.7 mph88%29.92 "Hg5 mi
8:20 PM72 °FPartly sunny.8 mph83%29.92 "Hg5 mi
7:50 PM72 °FPartly sunny.7 mph83%29.92 "Hg5 mi
7:20 PM72 °FBroken clouds.7 mph83%29.92 "Hg5 mi
6:50 PM72 °FPartly sunny.7 mph83%29.92 "Hg4 mi
6:20 PM72 °FPartly sunny.7 mph83%29.92 "Hg4 mi
5:50 PM72 °FPartly sunny.10 mph83%29.89 "Hg4 mi
5:20 PM72 °FPartly sunny.8 mph83%29.89 "Hg4 mi
4:50 PM72 °FPartly sunny.8 mph83%29.89 "Hg4 mi
4:20 PM72 °FPartly sunny.8 mph83%29.89 "Hg4 mi
3:50 PM72 °FPartly sunny.8 mph83%29.89 "HgN/A
3:20 PM72 °FPartly sunny.8 mph83%29.89 "HgN/A
Weather by CustomWeather, © 2014

See weather overviewHow to use our weather pages